This is the latest recevied weather packets stored in our database for station/object VU3CAM-13. If no packets are shown the sender has not sent any weather packets the latest 10 day(s).
| Time | Temp. | Humidity | Pressure | Rain* | Wind** | Luminosity | Snow |
|---|---|---|---|---|---|---|---|
| 1788420722 | 27.78° C | 61% | 910.5 hPa | - | - | - | - |
| 1788420122 | 27.22° C | 60% | 910.6 hPa | - | - | - | - |
| 1788419522 | 27.22° C | 60% | 910.7 hPa | - | - | - | - |
| 1788418922 | 27.22° C | 61% | 910.9 hPa | - | - | - | - |
| 1788418322 | 27.22° C | 61% | 911.1 hPa | - | - | - | - |
| 1788417722 | 27.22° C | 62% | 911.3 hPa | - | - | - | - |
| 1788417122 | 27.22° C | 61% | 911.5 hPa | - | - | - | - |
| 1788416522 | 27.22° C | 62% | 911.6 hPa | - | - | - | - |
| 1788415922 | 26.67° C | 63% | 911.7 hPa | - | - | - | - |
| 1788415322 | 26.67° C | 63% | 911.9 hPa | - | - | - | - |
| 1788414722 | 26.67° C | 64% | 912.1 hPa | - | - | - | - |
| 1788414122 | 26.11° C | 65% | 912.1 hPa | - | - | - | - |
| 1788413522 | 26.11° C | 65% | 912.3 hPa | - | - | - | - |
| 1788412922 | 26.11° C | 67% | 912.4 hPa | - | - | - | - |
| 1788412322 | 26.11° C | 66% | 912.5 hPa | - | - | - | - |
| 1788411722 | 26.67° C | 66% | 912.6 hPa | - | - | - | - |
| 1788411122 | 25° C | 69% | 912.6 hPa | - | - | - | - |
| 1788410522 | 25.56° C | 69% | 912.7 hPa | - | - | - | - |
| 1788409922 | 25.56° C | 69% | 912.8 hPa | - | - | - | - |
| 1788409322 | 24.44° C | 72% | 912.8 hPa | - | - | - | - |
| 1788408722 | 25° C | 72% | 912.9 hPa | - | - | - | - |
| 1788408122 | 24.44° C | 72% | 913 hPa | - | - | - | - |
| 1788407522 | 24.44° C | 74% | 913 hPa | - | - | - | - |
| 1788406922 | 23.89° C | 74% | 912.9 hPa | - | - | - | - |
| 1788406322 | 23.89° C | 75% | 912.9 hPa | - | - | - | - |
* Rain since midnight (hover to see other rain measurements)
** Current wind speed in m/s (hover to see current wind gust speed)